Gossamer Piccolomini

operational
NORAD ID: 51068 Int'l Des: NNA 2022-002 Owner: LUNASD Country: US
LEOCIRCULARRETROGRADESSO

About Gossamer Piccolomini

Description loading...

Live Position

Loading 3D Globe...

Upcoming Passes

Altitude History

Altitude vs Time

uPlot chart will show altitude changes over time

Two-Line Element Set

1 51068U 22002CN 26049.32836035 .00196678 00000-0 97848-3 0 9993
2 51068 97.2982 131.9548 0001549 292.6113 67.4992 15.81391121228622
Epoch: Feb 18, 2026 • Age: 25 hours

Current Status

Altitude 331.9 km
Velocity 7.71 km/s
Sub-Earth Point 38.82°N, 38.06°E
Launch Date Jan 13, 2022
Age 4.1 years
Type other

Technical Details

Classification Payload
Mass 1.00 kg
Dry Mass 1.00 kg
Total Mass 1.00 kg
Length 0.10 m
Diameter 0.10 m
Span 0.10 m
Shape Box
Manufacturer LUNASD
Bus Type Cubesat 1U
Phase Status In Orbit
Owner/State LUNASD/US

Large Constellations

Loading constellations...